Weather History for Flag Island, MN

Change the Weather History Date:

Wednesday, January 2, 2013

  Actual Average Record
Temperature  
Mean Temperature 14 °F -  
Max Temperature 19 °F 11 °F 30 °F (1997)
Min Temperature 10 °F -1 °F -31 °F (2014)
Degree Days  
Heating Degree Days 50    
Moisture  
Dew Point 14 °F    
Average Humidity 91    
Maximum Humidity 100    
Minimum Humidity 79    
Precipitation  
Precipitation 0.00 in - - ()
Sea Level Pressure  
Sea Level Pressure 29.89 in    
Wind  
Wind Speed 11 mph (WNW)    
Max Wind Speed 21 mph    
Max Gust Speed 21 mph    
Visibility 6 miles    
Events Snow    
Averages and records for this station are not official NWS values.
T = Trace of Precipitation, MM = Missing Value Source: NWS Daily Summary

Daily Weather History Graph

Daily Weather History Graph

Search for Another Location

Airport:

Trip Planner

Search our weather history database for the weather conditions in past years. The results will help you decide how hot, cold, wet, or windy it might be!

Date:

Astronomy

Jan. 02, 2013 Rise Set
Actual Time 8:14 AM CST 4:32 PM CST
Civil Twilight 7:37 AM CST 5:10 PM CST
Nautical Twilight 6:56 AM CST 5:50 PM CST
Astronomical Twilight 6:18 AM CST 6:29 PM CST
Moon 10:39 PM CST (1/2) 10:27 AM CST (1/2)
Length of Visible Light 9h 32m
Length of Day
8h 18m
Waning Gibbous, 75% of the Moon is Illuminated
Jan 2
Waning Gibbous
Jan 4
Last Quarter
Jan 11
New
Jan 18
First Quarter
Jan 26
Full

Hourly Weather History & Observations

Time (CST) Temp. Windchill Dew Point Humidity Pressure Visibility Wind Dir Wind Speed Gust Speed Precip Events Conditions
12:13 AM 17.6 °F 5.0 °F 15.8 °F 93% 29.77 in 5.0 mi South 11.5 mph - N/A Snow Light Snow
12:33 AM 17.6 °F 5.0 °F 15.8 °F 93% 29.77 in 7.0 mi South 11.5 mph - N/A Snow Light Snow
12:54 AM 17.6 °F 5.0 °F 15.8 °F 93% 29.76 in 10.0 mi South 11.5 mph - N/A   Overcast
1:13 AM 17.6 °F 4.3 °F 15.8 °F 93% 29.75 in 5.0 mi South 12.7 mph - N/A Snow Light Snow
1:33 AM 17.6 °F 4.3 °F 15.8 °F 93% 29.75 in 2.5 mi South 12.7 mph - N/A Snow Light Snow
1:54 AM 17.6 °F 4.3 °F 15.8 °F 93% 29.74 in 2.5 mi South 12.7 mph - N/A Snow Light Snow
2:13 AM 17.6 °F 3.7 °F 15.8 °F 93% 29.74 in 2.0 mi South 13.8 mph - N/A Snow Light Snow
2:34 AM 17.6 °F 3.7 °F 15.8 °F 93% 29.75 in 2.0 mi South 13.8 mph - N/A Snow Light Snow
3:14 AM 17.6 °F 5.0 °F 15.8 °F 93% 29.75 in 2.5 mi South 11.5 mph - N/A   Overcast
3:33 AM 17.6 °F 5.0 °F 15.8 °F 93% 29.75 in 3.0 mi South 11.5 mph - N/A   Overcast
3:54 AM 17.6 °F 5.0 °F 15.8 °F 93% 29.75 in 10.0 mi South 11.5 mph - N/A   Overcast
4:13 AM 17.6 °F 5.0 °F 15.8 °F 93% 29.74 in 10.0 mi South 11.5 mph - N/A   Overcast
4:33 AM 17.6 °F 4.3 °F 15.8 °F 93% 29.74 in 5.0 mi South 12.7 mph - N/A   Overcast
4:54 AM 17.6 °F 5.7 °F 17.6 °F 100% 29.75 in 2.5 mi South 10.4 mph - N/A   Overcast
5:13 AM 17.6 °F 5.7 °F 17.6 °F 100% 29.75 in 2.5 mi South 10.4 mph - N/A   Overcast
5:33 AM 17.6 °F 5.0 °F 17.6 °F 100% 29.75 in 3.0 mi South 11.5 mph - N/A   Overcast
6:13 AM 17.6 °F 6.4 °F 17.6 °F 100% 29.76 in 5.0 mi South 9.2 mph - N/A   Overcast
6:33 AM 17.6 °F 6.4 °F 15.8 °F 93% 29.76 in 5.0 mi South 9.2 mph - N/A   Overcast
6:53 AM 17.6 °F 8.2 °F 15.8 °F 93% 29.76 in 7.0 mi South 6.9 mph - N/A   Overcast
7:13 AM 17.6 °F 9.3 °F 17.6 °F 100% 29.77 in 4.0 mi South 5.8 mph - N/A   Overcast
7:33 AM 19.4 °F 10.4 °F 17.6 °F 93% 29.77 in 2.5 mi South 6.9 mph - N/A   Overcast
7:54 AM 19.4 °F 12.8 °F 17.6 °F 93% 29.78 in 2.5 mi South 4.6 mph - N/A   Overcast
8:13 AM 19.4 °F 12.8 °F 17.6 °F 93% 29.78 in 2.5 mi South 4.6 mph - N/A   Overcast
8:33 AM 19.4 °F 12.8 °F 17.6 °F 93% 29.78 in 3.0 mi South 4.6 mph - N/A   Overcast
9:13 AM 19.4 °F 14.3 °F 17.6 °F 93% 29.80 in 2.5 mi South 3.5 mph - N/A   Overcast
9:33 AM 19.4 °F - 17.6 °F 93% 29.81 in 2.0 mi Calm Calm - N/A   Overcast
9:54 AM 19.4 °F - 17.6 °F 93% 29.82 in 2.0 mi Calm Calm - N/A   Overcast
10:13 AM 19.4 °F - 17.6 °F 93% 29.83 in 2.0 mi Calm Calm - N/A Snow Light Snow
10:33 AM 19.4 °F - 17.6 °F 93% 29.84 in 4.0 mi Calm Calm - N/A Snow Light Snow
10:54 AM 19.4 °F 14.3 °F 17.6 °F 93% 29.84 in 4.0 mi WNW 3.5 mph - N/A   Overcast
11:13 AM 19.4 °F 12.8 °F 17.6 °F 93% 29.85 in 4.0 mi NW 4.6 mph - N/A Snow Light Snow
11:33 AM 19.4 °F 12.8 °F 17.6 °F 93% 29.85 in 5.0 mi NW 4.6 mph - N/A Snow Light Snow
11:54 AM 19.4 °F 11.5 °F 17.6 °F 93% 29.85 in 5.0 mi NW 5.8 mph - N/A Snow Light Snow
12:13 PM 19.4 °F 10.4 °F 17.6 °F 93% 29.85 in 5.0 mi NW 6.9 mph - N/A Snow Light Snow
12:33 PM 19.4 °F 11.5 °F 17.6 °F 93% 29.85 in 5.0 mi NW 5.8 mph - N/A Snow Light Snow
12:54 PM 19.4 °F 10.4 °F 17.6 °F 93% 29.86 in 7.0 mi NW 6.9 mph - N/A Snow Light Snow
1:13 PM 19.4 °F 10.4 °F 17.6 °F 93% 29.87 in 10.0 mi NW 6.9 mph - N/A   Overcast
1:33 PM 19.4 °F 7.9 °F 17.6 °F 93% 29.88 in 10.0 mi NW 10.4 mph - N/A   Overcast
1:54 PM 19.4 °F 7.9 °F 17.6 °F 93% 29.88 in 5.0 mi NW 10.4 mph - N/A Snow Light Snow
2:13 PM 19.4 °F 9.5 °F 17.6 °F 93% 29.87 in 5.0 mi NNW 8.1 mph - N/A Snow Light Snow
2:33 PM 19.4 °F 9.5 °F 17.6 °F 93% 29.88 in 5.0 mi NW 8.1 mph - N/A Snow Light Snow
2:53 PM 19.4 °F 7.9 °F 17.6 °F 93% 29.89 in 7.0 mi NW 10.4 mph - N/A Snow Light Snow
3:13 PM 19.4 °F 7.2 °F 15.8 °F 86% 29.89 in 7.0 mi NW 11.5 mph - N/A Snow Light Snow
3:34 PM 17.6 °F 3.7 °F 15.8 °F 93% 29.92 in 10.0 mi NW 13.8 mph - N/A Snow Light Snow
3:53 PM 17.6 °F 2.2 °F 15.8 °F 93% 29.93 in 7.0 mi NW 17.3 mph - N/A Snow Light Snow
4:13 PM 17.6 °F 1.7 °F 15.8 °F 93% 29.95 in 5.0 mi NW 18.4 mph - N/A Snow Light Snow
4:34 PM 17.6 °F 0.9 °F 14.0 °F 86% 29.96 in 10.0 mi NNW 20.7 mph - N/A   Overcast
4:53 PM 15.8 °F -0.6 °F 12.2 °F 86% 29.97 in 10.0 mi NW 18.4 mph - N/A Snow Light Snow
5:13 PM 15.8 °F -0.2 °F 12.2 °F 86% 29.98 in 10.0 mi NW 17.3 mph - N/A   Overcast
5:34 PM 15.8 °F -0.6 °F 12.2 °F 86% 30.00 in 10.0 mi NW 18.4 mph - N/A   Overcast
5:53 PM 15.8 °F -1.5 °F 12.2 °F 86% 30.01 in 10.0 mi NNW 20.7 mph - N/A   Overcast
6:13 PM 15.8 °F -1.5 °F 12.2 °F 86% 30.02 in 10.0 mi NNW 20.7 mph - N/A   Overcast
6:34 PM 15.8 °F -0.2 °F 10.4 °F 79% 30.04 in 7.0 mi NNW 17.3 mph - N/A   Overcast
6:53 PM 14.0 °F -2.0 °F 10.4 °F 86% 30.04 in 7.0 mi NNW 16.1 mph - N/A Snow Light Snow
7:13 PM 14.0 °F -2.5 °F 10.4 °F 86% 30.05 in 7.0 mi NNW 17.3 mph 20.7 mph N/A Snow Light Snow
7:34 PM 14.0 °F -2.0 °F 10.4 °F 86% 30.05 in 4.0 mi North 16.1 mph - N/A Snow Light Snow
7:53 PM 14.0 °F -0.2 °F 10.4 °F 86% 30.06 in 7.0 mi NNW 12.7 mph - N/A Snow Light Snow
8:13 PM 12.2 °F -5.8 °F 8.6 °F 85% 30.05 in 10.0 mi NNW 19.6 mph - N/A   Overcast
8:34 PM 12.2 °F -4.3 °F 8.6 °F 85% 30.07 in 10.0 mi NNW 16.1 mph - N/A   Overcast
8:53 PM 12.2 °F -4.3 °F 8.6 °F 85% 30.07 in 10.0 mi NNW 16.1 mph - N/A   Overcast
9:13 PM 12.2 °F -3.7 °F 8.6 °F 85% 30.08 in 10.0 mi NNW 15.0 mph - N/A   Overcast
9:34 PM 12.2 °F -3.1 °F 8.6 °F 85% 30.09 in 10.0 mi NNW 13.8 mph - N/A Snow Light Snow
9:53 PM 12.2 °F -2.5 °F 8.6 °F 85% 30.09 in 10.0 mi NNW 12.7 mph - N/A   Overcast
10:13 PM 10.4 °F -5.4 °F 6.8 °F 85% 30.09 in 10.0 mi NNW 13.8 mph - N/A   Overcast
10:34 PM 10.4 °F -5.4 °F 6.8 °F 85% 30.09 in 10.0 mi NNW 13.8 mph - N/A   Overcast
10:53 PM 10.4 °F -4.8 °F 6.8 °F 85% 30.10 in 10.0 mi NNW 12.7 mph - N/A   Overcast
11:13 PM 10.4 °F -4.1 °F 6.8 °F 85% 30.11 in 10.0 mi NNW 11.5 mph - N/A   Overcast
11:34 PM 10.4 °F -6.0 °F 6.8 °F 85% 30.12 in 10.0 mi NNW 15.0 mph - N/A   Overcast
11:53 PM 10.4 °F -6.6 °F 6.8 °F 85% 30.12 in 10.0 mi NNW 16.1 mph - N/A Snow Light Snow